Port Aransas, TX

8:40 PM CDT on May 22, 2018 (GMT -0500)
Port Aransas

Weather History for KRAS - February, 2013

Change the Weather History Date:

Thursday, February 14, 2013

  Actual Average (KNGP) Record (KNGP)
Temperature  
Mean Temperature 54 °F -  
Max Temperature 62 °F 67 °F 81 °F (2005)
Min Temperature 46 °F 52 °F 39 °F (1999)
Degree Days  
Heating Degree Days 11    
Growing Degree Days 4 (Base 50)    
Moisture  
Dew Point 44 °F    
Average Humidity 65    
Maximum Humidity 93    
Minimum Humidity 42    
Precipitation  
Precipitation 0.00 in - - ()
Sea Level Pressure  
Sea Level Pressure 30.09 in    
Wind  
Wind Speed 5 mph (East)    
Max Wind Speed 13 mph    
Max Gust Speed 16 mph    
Visibility 10 miles    
Events      
Averages and records for this station are not official NWS values.
T = Trace of Precipitation, MM = Missing Value Source: NWS Daily Summary

Daily Weather History Graph

Daily Weather History Graph

Search for Another Location

Airport or City:

Astronomy

Feb. 14, 2013 Rise Set
Actual Time 7:06 AM CST 6:19 PM CST
Civil Twilight 6:42 AM CST 6:43 PM CST
Nautical Twilight 6:14 AM CST 7:10 PM CST
Astronomical Twilight 5:47 AM CST 7:37 PM CST
Moon 9:38 AM CST (2/14) 10:50 PM CST (2/14)
Length of Visible Light 12h 00m
Length of Day
11h 12m
Waxing Crescent, 22% of the Moon is Illuminated
Feb 14
Waxing Crescent
Feb 17
First Quarter
Feb 25
Full
Mar 4
Last Quarter
Mar 11
New

Hourly Weather History & Observations

Time (CST) Temp. Windchill Dew Point Humidity Pressure Visibility Wind Dir Wind Speed Gust Speed Precip Events Conditions
12:15 AM 53.6 °F - 44.6 °F 72% 30.11 in 10.0 mi NE 4.6 mph - N/A   Clear
12:35 AM 53.6 °F - 42.8 °F 67% 30.10 in 10.0 mi ENE 4.6 mph - N/A   Clear
12:55 AM 51.8 °F - 42.8 °F 71% 30.10 in 10.0 mi NE 4.6 mph - N/A   Clear
1:15 AM 51.8 °F - 44.6 °F 76% 30.10 in 10.0 mi NNE 3.5 mph - N/A   Clear
1:35 AM 51.8 °F - 44.6 °F 76% 30.11 in 10.0 mi Calm Calm - N/A   Clear
1:55 AM 51.8 °F - 44.6 °F 76% 30.11 in 10.0 mi North 4.6 mph - N/A   Clear
2:15 AM 50.0 °F - 44.6 °F 82% 30.10 in 10.0 mi NNE 4.6 mph - N/A   Clear
2:35 AM 50.0 °F - 44.6 °F 82% 30.09 in 10.0 mi NNE 4.6 mph - N/A   Clear
2:55 AM 50.0 °F - 44.6 °F 82% 30.09 in 10.0 mi NNE 4.6 mph - N/A   Clear
3:15 AM 50.0 °F - 44.6 °F 82% 30.09 in 10.0 mi NNE 4.6 mph - N/A   Clear
3:35 AM 50.0 °F - 44.6 °F 82% 30.09 in 10.0 mi Calm Calm - N/A   Clear
3:55 AM 50.0 °F - 42.8 °F 76% 30.09 in 10.0 mi Calm Calm - N/A   Clear
4:15 AM 50.0 °F - 44.6 °F 82% 30.08 in 10.0 mi Calm Calm - N/A   Clear
4:35 AM 50.0 °F - 44.6 °F 82% 30.09 in 10.0 mi NNE 3.5 mph - N/A   Clear
4:55 AM 50.0 °F - 44.6 °F 82% 30.09 in 10.0 mi North 4.6 mph - N/A   Clear
5:15 AM 48.2 °F - 44.6 °F 87% 30.09 in 10.0 mi NNE 6.9 mph - N/A   Clear
5:35 AM 46.4 °F 45.2 °F 42.8 °F 87% 30.09 in 10.0 mi NNE 3.5 mph - N/A   Clear
5:55 AM 48.2 °F - 44.6 °F 87% 30.09 in 10.0 mi Calm Calm - N/A   Clear
6:15 AM 46.4 °F 45.2 °F 44.6 °F 93% 30.10 in 10.0 mi NNE 3.5 mph - N/A   Clear
6:35 AM 48.2 °F - 44.6 °F 87% 30.10 in 10.0 mi NE 4.6 mph - N/A   Clear
6:55 AM 48.2 °F - 44.6 °F 87% 30.11 in 10.0 mi NNE 5.8 mph - N/A   Clear
7:15 AM 48.2 °F - 42.8 °F 82% 30.11 in 10.0 mi NE 8.1 mph - N/A   Clear
7:35 AM 50.0 °F - 42.8 °F 76% 30.12 in 10.0 mi NE 5.8 mph - N/A   Clear
7:55 AM 50.0 °F - 44.6 °F 82% 30.13 in 10.0 mi NNE 3.5 mph - N/A   Clear
8:15 AM 53.6 °F - 46.4 °F 77% 30.13 in 10.0 mi NNE 4.6 mph - N/A   Clear
8:35 AM 55.4 °F - 46.4 °F 72% 30.14 in 10.0 mi NNE 6.9 mph - N/A   Clear
9:15 AM 59.0 °F - 44.6 °F 59% 30.15 in 10.0 mi NE 6.9 mph - N/A   Clear
9:55 AM 59.0 °F - 44.6 °F 59% 30.15 in 10.0 mi ENE 4.6 mph - N/A   Clear
10:15 AM 59.0 °F - 44.6 °F 59% 30.15 in 10.0 mi East 8.1 mph - N/A   Clear
10:35 AM 60.8 °F - 44.6 °F 55% 30.16 in 10.0 mi East 5.8 mph - N/A   Clear
10:55 AM 60.8 °F - 44.6 °F 55% 30.15 in 10.0 mi East 6.9 mph - N/A   Clear
11:15 AM 59.0 °F - 44.6 °F 59% 30.15 in 10.0 mi ESE 5.8 mph - N/A   Clear
11:35 AM 60.8 °F - 44.6 °F 55% 30.15 in 10.0 mi East 5.8 mph - N/A   Clear
11:55 AM 60.8 °F - 44.6 °F 55% 30.14 in 10.0 mi East 6.9 mph - N/A   Clear
12:15 PM 60.8 °F - 46.4 °F 59% 30.14 in 10.0 mi East 6.9 mph - N/A   Clear
12:35 PM 60.8 °F - 44.6 °F 55% 30.14 in 10.0 mi East 4.6 mph - N/A   Clear
12:55 PM 60.8 °F - 44.6 °F 55% 30.12 in 10.0 mi East 4.6 mph - N/A   Clear
1:15 PM 60.8 °F - 44.6 °F 55% 30.11 in 10.0 mi ESE 9.2 mph - N/A   Clear
1:35 PM 60.8 °F - 46.4 °F 59% 30.09 in 10.0 mi ESE 6.9 mph - N/A   Clear
1:55 PM 60.8 °F - 44.6 °F 55% 30.09 in 10.0 mi SE 5.8 mph - N/A   Clear
2:15 PM 60.8 °F - 44.6 °F 55% 30.08 in 10.0 mi ESE 6.9 mph - N/A   Clear
2:35 PM 60.8 °F - 42.8 °F 52% 30.07 in 10.0 mi East 6.9 mph - N/A   Clear
2:55 PM 62.6 °F - 44.6 °F 52% 30.06 in 10.0 mi ESE 6.9 mph - N/A   Clear
3:15 PM 62.6 °F - 44.6 °F 52% 30.06 in 10.0 mi ESE 6.9 mph - N/A   Clear
3:35 PM 62.6 °F - 42.8 °F 48% 30.06 in 10.0 mi East 6.9 mph - N/A   Clear
3:55 PM 62.6 °F - 44.6 °F 52% 30.06 in 10.0 mi East 6.9 mph - N/A   Clear
4:15 PM 62.6 °F - 41.0 °F 45% 30.06 in 10.0 mi East 6.9 mph - N/A   Clear
4:35 PM 62.6 °F - 39.2 °F 42% 30.06 in 10.0 mi East 9.2 mph - N/A   Clear
4:55 PM 62.6 °F - 41.0 °F 45% 30.06 in 10.0 mi East 8.1 mph - N/A   Clear
5:15 PM 62.6 °F - 41.0 °F 45% 30.06 in 10.0 mi ESE 6.9 mph - N/A   Clear
5:35 PM 60.8 °F - 42.8 °F 52% 30.05 in 10.0 mi ESE 8.1 mph - N/A   Clear
5:55 PM 60.8 °F - 42.8 °F 52% 30.05 in 10.0 mi ESE 8.1 mph - N/A   Clear
6:15 PM 59.0 °F - 42.8 °F 55% 30.06 in 10.0 mi ESE 8.1 mph - N/A   Clear
6:35 PM 59.0 °F - 42.8 °F 55% 30.06 in 10.0 mi ESE 8.1 mph - N/A   Clear
6:55 PM 59.0 °F - 42.8 °F 55% 30.06 in 10.0 mi ESE 5.8 mph - N/A   Clear
7:15 PM 59.0 °F - 42.8 °F 55% 30.06 in 10.0 mi ESE 8.1 mph - N/A   Clear
7:35 PM 59.0 °F - 44.6 °F 59% 30.06 in 10.0 mi ESE 8.1 mph - N/A   Clear
7:55 PM 59.0 °F - 42.8 °F 55% 30.05 in 10.0 mi ESE 8.1 mph - N/A   Clear
8:15 PM 59.0 °F - 42.8 °F 55% 30.06 in 10.0 mi SE 8.1 mph - N/A   Clear
8:35 PM 59.0 °F - 42.8 °F 55% 30.07 in 10.0 mi SE 9.2 mph - N/A   Clear
8:55 PM 59.0 °F - 44.6 °F 59% 30.06 in 10.0 mi ESE 9.2 mph - N/A   Clear
9:15 PM 59.0 °F - 44.6 °F 59% 30.07 in 10.0 mi ESE 9.2 mph - N/A   Clear
9:35 PM 59.0 °F - 44.6 °F 59% 30.07 in 10.0 mi ESE 11.5 mph - N/A   Clear
9:55 PM 59.0 °F - 44.6 °F 59% 30.08 in 10.0 mi ESE 10.4 mph - N/A   Clear
10:15 PM 59.0 °F - 44.6 °F 59% 30.07 in 10.0 mi ESE 11.5 mph - N/A   Clear
10:35 PM 59.0 °F - 46.4 °F 63% 30.07 in 10.0 mi ESE 10.4 mph - N/A   Clear
10:55 PM 59.0 °F - 46.4 °F 63% 30.08 in 10.0 mi ESE 11.5 mph 16.1 mph N/A   Clear
11:15 PM 59.0 °F - 46.4 °F 63% 30.07 in 10.0 mi ESE 10.4 mph 16.1 mph N/A   Clear
11:35 PM 59.0 °F - 46.4 °F 63% 30.07 in 10.0 mi ESE 12.7 mph - N/A   Clear
11:55 PM 59.0 °F - 48.2 °F 67% 30.07 in 10.0 mi ESE 11.5 mph - N/A   Clear